Location: El Corozo
(10.5833°N, 66.9667°W)
Time: 10:20:20
(UTC+00:00)

Cosmos 1959 Rocket - Pass Details

Date: 23 May 2024
Orbit: 948 x 995 km, 83.0° (Epoch: 20 June)

Event Time Altitude Azimuth Distance (km) Brightness Sun altitude
Exits shadow 08:20:47 23° 177° (S) 1,914 5.8 -24.1°
Maximum altitude 08:24:49 80° 93° (E) 967 4.5 -23.2°
Drops below altitude 10° 08:30:56 10° 7° (N) 2,681 7.2 -21.9°
Sets 08:33:26 0° 6° (N) 3,632 8.0 -21.4°
